| time (UTC) | temp C | wind direction | speed KPH | gust KPH | rain 1hr cm | rain 24hr cm | rain mn cm | humidity % | barometer mb |
| 20260506025536 | 22 | 207 | 1.6 | 12.9 | 0.00 | 0.00 | 0.00 | 51 | 1010.6 |
| 20260506025035 | 22 | 0 | 0.0 | 8.0 | 0.00 | 0.00 | 0.00 | 51 | 1010.6 |
| 20260506024552 | 22 | 225 | 3.2 | 8.0 | 0.00 | 0.00 | 0.00 | 50 | 1010.6 |
| 20260506024034 | 22 | 10 | 0.0 | 9.7 | 0.00 | 0.00 | 0.00 | 50 | 1010.7 |
| 20260506023536 | 22 | 0 | 0.0 | 9.7 | 0.00 | 0.00 | 0.00 | 49 | 1010.8 |
| 20260506023050 | 22 | 217 | 3.2 | 9.7 | 0.00 | 0.00 | 0.00 | 49 | 1010.8 |
| 20260506022536 | 22 | 0 | 3.2 | 9.7 | 0.00 | 0.00 | 0.00 | 49 | 1010.8 |
| 20260506022035 | 22 | 0 | 0.0 | 9.7 | 0.00 | 0.00 | 0.00 | 48 | 1010.9 |
| 20260506021557 | 23 | 173 | 1.6 | 8.0 | 0.00 | 0.00 | 0.00 | 47 | 1010.8 |
| 20260506021034 | 23 | 86 | 1.6 | 11.3 | 0.00 | 0.00 | 0.00 | 47 | 1010.8 |
| 20260506020536 | 23 | 153 | 1.6 | 11.3 | 0.00 | 0.00 | 0.00 | 47 | 1010.8 |
| 20260506020052 | 23 | 188 | 0.0 | 6.4 | 0.00 | 0.00 | 0.00 | 46 | 1010.8 |
| 20260506015536 | 23 | 100 | 1.6 | 6.4 | 0.00 | 0.00 | 0.00 | 45 | 1010.8 |
| 20260506015036 | 23 | 142 | 0.0 | 8.0 | 0.00 | 0.00 | 0.00 | 45 | 1010.6 |
| 20260506014547 | 23 | 0 | 1.6 | 14.5 | 0.00 | 0.00 | 0.00 | 44 | 1010.6 |
| 20260506014039 | 23 | 149 | 1.6 | 14.5 | 0.00 | 0.00 | 0.00 | 44 | 1010.5 |
| 20260506013538 | 23 | 180 | 1.6 | 11.3 | 0.00 | 0.00 | 0.00 | 44 | 1010.6 |
| 20260506013052 | 23 | 251 | 1.6 | 11.3 | 0.00 | 0.00 | 0.00 | 43 | 1010.6 |
| 20260506012537 | 23 | 173 | 1.6 | 9.7 | 0.00 | 0.00 | 0.00 | 43 | 1010.5 |
| 20260506012039 | 24 | 154 | 1.6 | 9.7 | 0.00 | 0.00 | 0.00 | 42 | 1010.4 |
| 20260506011551 | 24 | 166 | 1.6 | 9.7 | 0.00 | 0.00 | 0.00 | 41 | 1010.3 |
| 20260506011038 | 24 | 217 | 1.6 | 9.7 | 0.00 | 0.00 | 0.00 | 41 | 1010.2 |
| 20260506010538 | 24 | 211 | 1.6 | 9.7 | 0.00 | 0.00 | 0.00 | 41 | 1010.1 |
| 20260506010057 | 24 | 0 | 1.6 | 14.5 | 0.00 | 0.00 | 0.00 | 40 | 1010.1 |
| 20260506005538 | 24 | 180 | 4.8 | 14.5 | 0.00 | 0.00 | 0.00 | 40 | 1010.1 |
| 20260506005038 | 25 | 148 | 3.2 | 12.9 | 0.00 | 0.00 | 0.00 | 39 | 1010.0 |
| 20260506004550 | 25 | 203 | 3.2 | 12.9 | 0.00 | 0.00 | 0.00 | 39 | 1009.9 |
| 20260506004038 | 25 | 223 | 4.8 | 12.9 | 0.00 | 0.00 | 0.00 | 39 | 1009.9 |
| 20260506003538 | 25 | 241 | 1.6 | 11.3 | 0.00 | 0.00 | 0.00 | 38 | 1009.8 |
| 20260506003058 | 25 | 193 | 3.2 | 11.3 | 0.00 | 0.00 | 0.00 | 38 | 1009.9 |
| 20260506002537 | 25 | 0 | 3.2 | 11.3 | 0.00 | 0.00 | 0.00 | 37 | 1009.8 |
| 20260506002038 | 25 | 0 | 3.2 | 11.3 | 0.00 | 0.00 | 0.00 | 37 | 1009.8 |
| 20260506001547 | 25 | 180 | 3.2 | 11.3 | 0.00 | 0.00 | 0.00 | 37 | 1009.8 |
| 20260506001039 | 25 | 0 | 3.2 | 14.5 | 0.00 | 0.00 | 0.00 | 37 | 1009.7 |
| 20260506000539 | 25 | 205 | 3.2 | 14.5 | 0.00 | 0.00 | 0.00 | 36 | 1009.6 |
| 20260506000100 | 25 | 238 | 3.2 | 14.5 | 0.00 | 0.00 | 0.00 | 36 | 1009.6 |
| 20260505235539 | 26 | 180 | 1.6 | 14.5 | 0.00 | 0.00 | 0.00 | 36 | 1009.6 |
| 20260505235038 | 26 | 219 | 3.2 | 14.5 | 0.00 | 0.00 | 0.00 | 35 | 1009.5 |
| 20260505234558 | 26 | 223 | 4.8 | 14.5 | 0.00 | 0.00 | 0.00 | 34 | 1009.5 |
| 20260505234039 | 26 | 193 | 4.8 | 11.3 | 0.00 | 0.00 | 0.00 | 34 | 1009.4 |
| 20260505233538 | 26 | 142 | 1.6 | 11.3 | 0.00 | 0.00 | 0.00 | 34 | 1009.4 |
| 20260505233108 | 26 | 231 | 3.2 | 20.9 | 0.00 | 0.00 | 0.00 | 33 | 1009.3 |
| 20260505232538 | 26 | 194 | 3.2 | 20.9 | 0.00 | 0.00 | 0.00 | 32 | 1009.4 |
| 20260505232038 | 26 | 235 | 4.8 | 20.9 | 0.00 | 0.00 | 0.00 | 32 | 1009.4 |
| 20260505231556 | 27 | 0 | 3.2 | 16.1 | 0.00 | 0.00 | 0.00 | 31 | 1009.4 |
| 20260505231038 | 27 | 231 | 3.2 | 16.1 | 0.00 | 0.00 | 0.00 | 31 | 1009.4 |
| 20260505230538 | 27 | 221 | 6.4 | 22.5 | 0.00 | 0.00 | 0.00 | 30 | 1009.4 |
| 20260505230048 | 27 | 205 | 6.4 | 22.5 | 0.00 | 0.00 | 0.00 | 30 | 1009.4 |
| 20260505225538 | 27 | 232 | 6.4 | 22.5 | 0.00 | 0.00 | 0.00 | 29 | 1009.4 |
| 20260505225040 | 27 | 200 | 8.0 | 22.5 | 0.00 | 0.00 | 0.00 | 29 | 1009.3 |
| 20260505224547 | 27 | 165 | 6.4 | 27.4 | 0.00 | 0.00 | 0.00 | 29 | 1009.5 |
| 20260505224037 | 27 | 276 | 9.7 | 27.4 | 0.00 | 0.00 | 0.00 | 28 | 1009.5 |
| 20260505223534 | 28 | 205 | 9.7 | 22.5 | 0.00 | 0.00 | 0.00 | 28 | 1009.4 |
| 20260505223052 | 28 | 221 | 6.4 | 19.3 | 0.00 | 0.00 | 0.00 | 27 | 1009.3 |
| 20260505222534 | 28 | 219 | 4.8 | 32.2 | 0.00 | 0.00 | 0.00 | 26 | 1009.3 |
| 20260505222036 | 28 | 250 | 8.0 | 32.2 | 0.00 | 0.00 | 0.00 | 27 | 1009.2 |
| 20260505221549 | 28 | 170 | 6.4 | 17.7 | 0.00 | 0.00 | 0.00 | 28 | 1009.2 |
| 20260505221035 | 28 | 178 | 4.8 | 20.9 | 0.00 | 0.00 | 0.00 | 28 | 1009.2 |
| 20260505220539 | 28 | 180 | 6.4 | 24.1 | 0.00 | 0.00 | 0.00 | 29 | 1009.1 |
| 20260505220048 | 28 | 232 | 3.2 | 24.1 | 0.00 | 0.00 | 0.00 | 29 | 1009.1 |
| 20260505215535 | 28 | 231 | 4.8 | 17.7 | 0.00 | 0.00 | 0.00 | 28 | 1009.2 |
| 20260505215035 | 28 | 278 | 1.6 | 17.7 | 0.00 | 0.00 | 0.00 | 28 | 1009.2 |
| 20260505214555 | 28 | 205 | 3.2 | 20.9 | 0.00 | 0.00 | 0.00 | 27 | 1009.2 |
| 20260505214035 | 28 | 286 | 6.4 | 20.9 | 0.00 | 0.00 | 0.00 | 27 | 1009.2 |
| 20260505213534 | 28 | 248 | 8.0 | 22.5 | 0.00 | 0.00 | 0.00 | 27 | 1009.3 |
| 20260505213048 | 28 | 234 | 4.8 | 22.5 | 0.00 | 0.00 | 0.00 | 26 | 1009.2 |
| 20260505212536 | 28 | 49 | 6.4 | 22.5 | 0.00 | 0.00 | 0.00 | 25 | 1009.2 |
| 20260505212035 | 28 | 239 | 4.8 | 30.6 | 0.00 | 0.00 | 0.00 | 26 | 1009.2 |
| 20260505211547 | 29 | 288 | 4.8 | 30.6 | 0.00 | 0.00 | 0.00 | 26 | 1009.1 |
| 20260505211038 | 29 | 142 | 9.7 | 29.0 | 0.00 | 0.00 | 0.00 | 24 | 1009.0 |
| 20260505210535 | 29 | 31 | 6.4 | 19.3 | 0.00 | 0.00 | 0.00 | 25 | 1009.1 |
| 20260505210051 | 28 | 246 | 8.0 | 19.3 | 0.00 | 0.00 | 0.00 | 25 | 1009.1 |
| 20260505205536 | 28 | 255 | 9.7 | 30.6 | 0.00 | 0.00 | 0.00 | 24 | 1009.1 |
| 20260505205035 | 28 | 274 | 8.0 | 30.6 | 0.00 | 0.00 | 0.00 | 24 | 1009.0 |
| 20260505204548 | 29 | 250 | 6.4 | 27.4 | 0.00 | 0.00 | 0.00 | 25 | 1009.3 |
| 20260505204035 | 29 | 261 | 8.0 | 30.6 | 0.00 | 0.00 | 0.00 | 24 | 1009.0 |
| 20260505203536 | 29 | 188 | 9.7 | 30.6 | 0.00 | 0.00 | 0.00 | 24 | 1009.0 |
| 20260505203055 | 30 | 296 | 4.8 | 25.7 | 0.00 | 0.00 | 0.00 | 25 | 1009.0 |
| 20260505202539 | 30 | 239 | 8.0 | 25.7 | 0.00 | 0.00 | 0.00 | 25 | 1009.0 |
| 20260505202037 | 29 | 62 | 6.4 | 25.7 | 0.00 | 0.00 | 0.00 | 25 | 1009.2 |
| 20260505201557 | 29 | 246 | 8.0 | 24.1 | 0.00 | 0.00 | 0.00 | 24 | 1009.2 |
| 20260505201035 | 30 | 180 | 8.0 | 24.1 | 0.00 | 0.00 | 0.00 | 25 | 1009.2 |
| 20260505200535 | 29 | 101 | 6.4 | 25.7 | 0.00 | 0.00 | 0.00 | 25 | 1009.2 |
| 20260505200051 | 29 | 287 | 9.7 | 25.7 | 0.00 | 0.00 | 0.00 | 25 | 1009.3 |
| 20260505195535 | 30 | 244 | 6.4 | 25.7 | 0.00 | 0.00 | 0.00 | 26 | 1009.3 |
| 20260505195034 | 30 | 161 | 4.8 | 22.5 | 0.00 | 0.00 | 0.00 | 27 | 1009.2 |
| 20260505194605 | 30 | 166 | 8.0 | 22.5 | 0.00 | 0.00 | 0.00 | 27 | 1009.3 |
| 20260505194035 | 30 | 205 | 11.3 | 24.1 | 0.00 | 0.00 | 0.00 | 27 | 1009.4 |
| 20260505193536 | 30 | 247 | 9.7 | 24.1 | 0.00 | 0.00 | 0.00 | 26 | 1009.6 |
| 20260505193046 | 30 | 294 | 6.4 | 27.4 | 0.00 | 0.00 | 0.00 | 25 | 1009.5 |
| 20260505192535 | 30 | 244 | 3.2 | 27.4 | 0.00 | 0.00 | 0.00 | 26 | 1009.7 |
| 20260505192035 | 30 | 240 | 6.4 | 19.3 | 0.00 | 0.00 | 0.00 | 26 | 1009.8 |
| 20260505191546 | 30 | 144 | 6.4 | 20.9 | 0.00 | 0.00 | 0.00 | 26 | 1009.8 |
| 20260505191037 | 30 | 286 | 4.8 | 20.9 | 0.00 | 0.00 | 0.00 | 27 | 1010.0 |
| 20260505190534 | 29 | 280 | 8.0 | 25.7 | 0.00 | 0.00 | 0.00 | 26 | 1010.3 |
| 20260505190053 | 29 | 113 | 9.7 | 25.7 | 0.00 | 0.00 | 0.00 | 27 | 1010.3 |
| 20260505185535 | 29 | 117 | 6.4 | 22.5 | 0.00 | 0.00 | 0.00 | 28 | 1010.3 |
| 20260505185035 | 29 | 194 | 3.2 | 22.5 | 0.00 | 0.00 | 0.00 | 30 | 1010.5 |
| 20260505184550 | 29 | 205 | 8.0 | 30.6 | 0.00 | 0.00 | 0.00 | 28 | 1010.6 |
| 20260505184035 | 29 | 207 | 4.8 | 30.6 | 0.00 | 0.00 | 0.00 | 27 | 1010.6 |
| 20260505183535 | 29 | 163 | 6.4 | 22.5 | 0.00 | 0.00 | 0.00 | 28 | 1010.7 |
| 20260505183055 | 28 | 291 | 8.0 | 29.0 | 0.00 | 0.00 | 0.00 | 29 | 1010.6 |
| 20260505182534 | 28 | 325 | 9.7 | 29.0 | 0.00 | 0.00 | 0.00 | 29 | 1010.6 |
| 20260505182037 | 28 | 229 | 6.4 | 17.7 | 0.00 | 0.00 | 0.00 | 29 | 1010.7 |
| 20260505181551 | 28 | 309 | 4.8 | 19.3 | 0.00 | 0.00 | 0.00 | 30 | 1010.6 |
| 20260505181034 | 28 | 275 | 8.0 | 20.9 | 0.00 | 0.00 | 0.00 | 29 | 1010.8 |
| 20260505180538 | 28 | 257 | 6.4 | 20.9 | 0.00 | 0.00 | 0.00 | 29 | 1011.0 |
| 20260505180054 | 28 | 251 | 6.4 | 24.1 | 0.00 | 0.00 | 0.00 | 30 | 1010.9 |
| 20260505175535 | 28 | 136 | 6.4 | 25.7 | 0.00 | 0.00 | 0.00 | 31 | 1011.0 |
| 20260505175035 | 28 | 250 | 8.0 | 25.7 | 0.00 | 0.00 | 0.00 | 31 | 1011.0 |
| 20260505174556 | 28 | 260 | 8.0 | 19.3 | 0.00 | 0.00 | 0.00 | 30 | 1010.9 |
| 20260505174035 | 28 | 243 | 8.0 | 20.9 | 0.00 | 0.00 | 0.00 | 33 | 1011.0 |
| 20260505173535 | 28 | 206 | 6.4 | 20.9 | 0.00 | 0.00 | 0.00 | 31 | 1011.1 |
| 20260505173048 | 28 | 122 | 6.4 | 22.5 | 0.00 | 0.00 | 0.00 | 32 | 1010.9 |
| 20260505172535 | 28 | 173 | 8.0 | 22.5 | 0.00 | 0.00 | 0.00 | 32 | 1011.1 |
| 20260505172035 | 28 | 289 | 6.4 | 19.3 | 0.00 | 0.00 | 0.00 | 32 | 1011.1 |
| 20260505171551 | 28 | 271 | 6.4 | 17.7 | 0.00 | 0.00 | 0.00 | 31 | 1011.1 |
| 20260505171038 | 28 | 152 | 4.8 | 17.7 | 0.00 | 0.00 | 0.00 | 31 | 1011.2 |
| 20260505170535 | 27 | 255 | 4.8 | 17.7 | 0.00 | 0.00 | 0.00 | 34 | 1011.2 |
| 20260505170052 | 27 | 256 | 3.2 | 12.9 | 0.00 | 0.00 | 0.00 | 35 | 1011.3 |
| 20260505165535 | 27 | 263 | 6.4 | 12.9 | 0.00 | 0.00 | 0.00 | 33 | 1011.4 |
| 20260505165035 | 27 | 179 | 4.8 | 25.7 | 0.00 | 0.00 | 0.00 | 35 | 1011.5 |
| 20260505164610 | 27 | 81 | 4.8 | 25.7 | 0.00 | 0.00 | 0.00 | 35 | 1011.6 |
| 20260505164034 | 27 | 195 | 4.8 | 16.1 | 0.00 | 0.00 | 0.00 | 35 | 1011.7 |
| 20260505163535 | 27 | 163 | 4.8 | 16.1 | 0.00 | 0.00 | 0.00 | 35 | 1011.8 |
| 20260505163101 | 27 | 248 | 4.8 | 14.5 | 0.00 | 0.00 | 0.00 | 36 | 1011.9 |
| 20260505162535 | 27 | 256 | 6.4 | 17.7 | 0.00 | 0.00 | 0.00 | 35 | 1011.9 |
| 20260505162035 | 27 | 224 | 3.2 | 17.7 | 0.00 | 0.00 | 0.00 | 38 | 1012.0 |
| 20260505161553 | 27 | 263 | 3.2 | 14.5 | 0.00 | 0.00 | 0.00 | 39 | 1012.0 |
| 20260505161035 | 26 | 272 | 4.8 | 16.1 | 0.00 | 0.00 | 0.00 | 39 | 1012.1 |
| 20260505160538 | 26 | 198 | 3.2 | 16.1 | 0.00 | 0.00 | 0.00 | 39 | 1012.2 |
| 20260505153055 | 25 | 161 | 3.2 | 22.5 | 0.00 | 0.00 | 0.00 | 40 | 1012.4 |
| 20260505152539 | 25 | 288 | 6.4 | 22.5 | 0.00 | 0.00 | 0.00 | 40 | 1012.3 |
| 20260505152038 | 25 | 261 | 6.4 | 20.9 | 0.00 | 0.00 | 0.00 | 41 | 1012.3 |
| 20260505151555 | 25 | 217 | 4.8 | 19.3 | 0.00 | 0.00 | 0.00 | 43 | 1012.4 |
| 20260505151036 | 25 | 150 | 6.4 | 20.9 | 0.00 | 0.00 | 0.00 | 42 | 1012.5 |
| 20260505150536 | 25 | 117 | 3.2 | 20.9 | 0.00 | 0.00 | 0.00 | 44 | 1012.4 |
| 20260505140538 | 22 | 47 | 1.6 | 9.7 | 0.00 | 0.00 | 0.00 | 49 | 1012.4 |
| 20260505130108 | 20 | 207 | 4.8 | 17.7 | 0.00 | 0.00 | 0.00 | 53 | 1012.7 |
| 20260505125038 | 20 | 196 | 3.2 | 14.5 | 0.00 | 0.00 | 0.00 | 53 | 1012.9 |
| 20260505124556 | 19 | 264 | 0.0 | 16.1 | 0.00 | 0.00 | 0.00 | 55 | 1012.9 |
| 20260505124038 | 19 | 246 | 4.8 | 16.1 | 0.00 | 0.00 | 0.00 | 54 | 1012.9 |
| 20260505123538 | 19 | 275 | 0.0 | 16.1 | 0.00 | 0.00 | 0.00 | 55 | 1012.9 |
| 20260505123055 | 19 | 197 | 3.2 | 16.1 | 0.00 | 0.00 | 0.00 | 55 | 1012.9 |
| 20260505122535 | 18 | 219 | 3.2 | 12.9 | 0.00 | 0.00 | 0.00 | 56 | 1012.9 |
| 20260505122038 | 18 | 269 | 0.0 | 6.4 | 0.00 | 0.00 | 0.00 | 57 | 1012.7 |
| 20260505121551 | 18 | 258 | 0.0 | 8.0 | 0.00 | 0.00 | 0.00 | 58 | 1012.7 |
| 20260505121038 | 18 | 178 | 0.0 | 8.0 | 0.00 | 0.00 | 0.00 | 59 | 1012.7 |
| 20260505120537 | 18 | 188 | 1.6 | 6.4 | 0.00 | 0.00 | 0.00 | 59 | 1012.8 |
| 20260505120105 | 18 | 0 | 1.6 | 8.0 | 0.00 | 0.00 | 0.00 | 58 | 1012.7 |
| 20260505115538 | 18 | 0 | 1.6 | 8.0 | 0.00 | 0.00 | 0.00 | 59 | 1012.7 |
| 20260505115043 | 17 | 219 | 0.0 | 8.0 | 0.00 | 0.00 | 0.00 | 59 | 1012.6 |
| 20260505114547 | 17 | 0 | 0.0 | 8.0 | 0.00 | 0.00 | 0.00 | 60 | 1012.5 |
| 20260505114039 | 17 | 156 | 1.6 | 6.4 | 0.00 | 0.00 | 0.00 | 60 | 1012.5 |
| 20260505113542 | 17 | 0 | 0.0 | 6.4 | 0.00 | 0.00 | 0.00 | 65 | 1012.4 |
| 20260505113052 | 17 | 202 | 0.0 | 6.4 | 0.00 | 0.00 | 0.00 | 63 | 1012.4 |
| 20260505112542 | 16 | 0 | 0.0 | 6.4 | 0.00 | 0.00 | 0.00 | 67 | 1012.4 |
| 20260505112038 | 16 | 0 | 0.0 | 0.0 | 0.00 | 0.00 | 0.00 | 67 | 1012.3 |
| 20260505111552 | 15 | 0 | 0.0 | 0.0 | 0.00 | 0.00 | 0.00 | 72 | 1012.3 |
| 20260505111039 | 15 | 0 | 0.0 | 0.0 | 0.00 | 0.00 | 0.00 | 75 | 1012.3 |
| 20260505110538 | 15 | 0 | 0.0 | 0.0 | 0.00 | 0.00 | 0.00 | 76 | 1012.2 |
| 20260505102038 | 15 | 0 | 0.0 | 0.0 | 0.00 | 0.00 | 0.00 | 66 | 1011.9 |
| 20260505101550 | 15 | 0 | 0.0 | 0.0 | 0.00 | 0.00 | 0.00 | 64 | 1011.9 |
| 20260505101039 | 15 | 0 | 0.0 | 1.6 | 0.00 | 0.00 | 0.00 | 64 | 1011.8 |
| 20260505100539 | 16 | 0 | 0.0 | 1.6 | 0.00 | 0.00 | 0.00 | 64 | 1011.8 |
| 20260505100048 | 16 | 0 | 0.0 | 1.6 | 0.00 | 0.00 | 0.00 | 63 | 1011.7 |
| 20260505095539 | 16 | 0 | 0.0 | 3.2 | 0.00 | 0.00 | 0.00 | 62 | 1011.6 |
| 20260505095038 | 16 | 0 | 0.0 | 4.8 | 0.00 | 0.00 | 0.00 | 60 | 1011.7 |
| 20260505094548 | 16 | 0 | 0.0 | 8.0 | 0.00 | 0.00 | 0.00 | 60 | 1011.8 |
| 20260505094035 | 16 | 100 | 0.0 | 11.3 | 0.00 | 0.00 | 0.00 | 60 | 1011.7 |
| 20260505093535 | 16 | 123 | 0.0 | 11.3 | 0.00 | 0.00 | 0.00 | 60 | 1011.6 |
| 20260505093102 | 16 | 0 | 0.0 | 6.4 | 0.00 | 0.00 | 0.00 | 59 | 1011.7 |
| 20260505092537 | 16 | 0 | 0.0 | 6.4 | 0.00 | 0.00 | 0.00 | 59 | 1011.6 |
| 20260505092036 | 16 | 278 | 0.0 | 11.3 | 0.00 | 0.00 | 0.00 | 59 | 1011.7 |
| 20260505091549 | 16 | 0 | 1.6 | 11.3 | 0.00 | 0.00 | 0.00 | 59 | 1011.7 |
| 20260505091038 | 16 | 198 | 0.0 | 14.5 | 0.00 | 0.00 | 0.00 | 59 | 1011.7 |
| 20260505090535 | 16 | 152 | 1.6 | 14.5 | 0.00 | 0.00 | 0.00 | 59 | 1011.6 |
| 20260505090050 | 16 | 163 | 3.2 | 14.5 | 0.00 | 0.00 | 0.00 | 58 | 1011.6 |
| 20260505085536 | 16 | 166 | 0.0 | 11.3 | 0.00 | 0.00 | 0.00 | 58 | 1011.6 |
| 20260505085038 | 16 | 0 | 0.0 | 11.3 | 0.00 | 0.00 | 0.00 | 58 | 1011.6 |
| 20260505084548 | 16 | 161 | 1.6 | 12.9 | 0.00 | 0.00 | 0.00 | 58 | 1011.6 |
| 20260505084038 | 16 | 0 | 1.6 | 14.5 | 0.00 | 0.00 | 0.00 | 58 | 1011.5 |
| 20260505083538 | 16 | 257 | 1.6 | 14.5 | 0.00 | 0.00 | 0.00 | 58 | 1011.5 |
| 20260505083048 | 16 | 0 | 0.0 | 4.8 | 0.00 | 0.00 | 0.00 | 58 | 1011.4 |
| 20260505082535 | 16 | 0 | 0.0 | 4.8 | 0.00 | 0.00 | 0.00 | 58 | 1011.3 |
| 20260505082035 | 16 | 0 | 0.0 | 4.8 | 0.00 | 0.00 | 0.00 | 58 | 1011.3 |
| 20260505081552 | 16 | 140 | 0.0 | 6.4 | 0.00 | 0.00 | 0.00 | 58 | 1011.4 |
| 20260505081037 | 16 | 0 | 1.6 | 6.4 | 0.00 | 0.00 | 0.00 | 58 | 1011.2 |
| 20260505080538 | 16 | 0 | 0.0 | 9.7 | 0.00 | 0.00 | 0.00 | 58 | 1011.2 |
| 20260505080049 | 16 | 101 | 0.0 | 9.7 | 0.00 | 0.00 | 0.00 | 58 | 1011.1 |
| 20260505075535 | 16 | 0 | 0.0 | 11.3 | 0.00 | 0.00 | 0.00 | 58 | 1011.2 |
| 20260505075035 | 16 | 0 | 3.2 | 11.3 | 0.00 | 0.00 | 0.00 | 58 | 1011.2 |
| 20260505074552 | 16 | 167 | 0.0 | 3.2 | 0.00 | 0.00 | 0.00 | 58 | 1011.2 |
| 20260505074035 | 16 | 0 | 0.0 | 3.2 | 0.00 | 0.00 | 0.00 | 59 | 1011.2 |
| 20260505073535 | 16 | 155 | 0.0 | 3.2 | 0.00 | 0.00 | 0.00 | 59 | 1011.2 |
| 20260505073051 | 16 | 0 | 0.0 | 0.0 | 0.00 | 0.00 | 0.00 | 59 | 1011.3 |
| 20260505072535 | 16 | 0 | 0.0 | 0.0 | 0.00 | 0.00 | 0.00 | 59 | 1011.3 |
| 20260505072036 | 16 | 0 | 0.0 | 0.0 | 0.00 | 0.00 | 0.00 | 58 | 1011.1 |
| 20260505071553 | 16 | 0 | 0.0 | 0.0 | 0.00 | 0.00 | 0.00 | 60 | 1011.1 |
| 20260505071035 | 16 | 0 | 0.0 | 0.0 | 0.00 | 0.00 | 0.00 | 58 | 1011.1 |
| 20260505070538 | 16 | 0 | 0.0 | 1.6 | 0.00 | 0.00 | 0.00 | 58 | 1011.0 |
| 20260505070047 | 16 | 0 | 0.0 | 1.6 | 0.00 | 0.00 | 0.00 | 58 | 1011.0 |
| 20260505065536 | 16 | 0 | 0.0 | 4.8 | 0.00 | 0.00 | 0.00 | 57 | 1010.9 |
| 20260505065035 | 16 | 0 | 0.0 | 4.8 | 0.00 | 0.00 | 0.00 | 57 | 1010.9 |
| 20260505064547 | 16 | 0 | 0.0 | 4.8 | 0.00 | 0.00 | 0.00 | 57 | 1010.8 |
| 20260505064038 | 16 | 187 | 0.0 | 3.2 | 0.00 | 0.00 | 0.00 | 57 | 1010.9 |
| 20260505063538 | 17 | 0 | 0.0 | 6.4 | 0.00 | 0.00 | 0.00 | 57 | 1010.9 |
| 20260505063050 | 17 | 0 | 0.0 | 6.4 | 0.00 | 0.00 | 0.00 | 57 | 1010.9 |
| 20260505062538 | 17 | 0 | 0.0 | 6.4 | 0.00 | 0.00 | 0.00 | 57 | 1010.8 |
| 20260505062038 | 17 | 0 | 0.0 | 8.0 | 0.00 | 0.00 | 0.00 | 56 | 1010.8 |
| 20260505061548 | 17 | 76 | 0.0 | 8.0 | 0.00 | 0.00 | 0.00 | 56 | 1010.9 |
| 20260505061038 | 17 | 154 | 0.0 | 3.2 | 0.00 | 0.00 | 0.00 | 56 | 1010.9 |
| 20260505060538 | 17 | 0 | 0.0 | 0.0 | 0.00 | 0.00 | 0.00 | 56 | 1010.8 |
| 20260505060056 | 17 | 0 | 0.0 | 0.0 | 0.00 | 0.00 | 0.00 | 56 | 1010.8 |
| 20260505055539 | 17 | 0 | 0.0 | 6.4 | 0.00 | 0.00 | 0.00 | 55 | 1010.8 |
| 20260505055036 | 17 | 0 | 0.0 | 6.4 | 0.00 | 0.00 | 0.00 | 55 | 1010.7 |
| 20260505054556 | 17 | 0 | 0.0 | 6.4 | 0.00 | 0.00 | 0.00 | 55 | 1010.7 |
| 20260505054041 | 17 | 0 | 0.0 | 6.4 | 0.00 | 0.00 | 0.00 | 54 | 1010.6 |
| 20260505053535 | 17 | 132 | 0.0 | 6.4 | 0.00 | 0.00 | 0.00 | 54 | 1010.6 |
| 20260505053057 | 17 | 236 | 0.0 | 6.4 | 0.00 | 0.00 | 0.00 | 54 | 1010.6 |
| 20260505052538 | 17 | 0 | 1.6 | 6.4 | 0.00 | 0.00 | 0.00 | 54 | 1010.7 |
| 20260505052038 | 17 | 0 | 0.0 | 9.7 | 0.00 | 0.00 | 0.00 | 54 | 1010.6 |
| 20260505051546 | 17 | 0 | 1.6 | 9.7 | 0.00 | 0.00 | 0.00 | 54 | 1010.6 |
| 20260505051036 | 18 | 0 | 0.0 | 8.0 | 0.00 | 0.00 | 0.00 | 53 | 1010.6 |
| 20260505050538 | 18 | 0 | 0.0 | 4.8 | 0.00 | 0.00 | 0.00 | 53 | 1010.6 |
| 20260505041552 | 19 | 192 | 0.0 | 6.4 | 0.00 | 0.00 | 0.00 | 51 | 1010.4 |
| 20260505041036 | 19 | 194 | 0.0 | 8.0 | 0.00 | 0.00 | 0.00 | 51 | 1010.4 |
| 20260505040541 | 19 | 0 | 1.6 | 8.0 | 0.00 | 0.00 | 0.00 | 50 | 1010.4 |
| 20260505040051 | 19 | 191 | 0.0 | 8.0 | 0.00 | 0.00 | 0.00 | 50 | 1010.4 |
| 20260505035537 | 19 | 0 | 0.0 | 8.0 | 0.00 | 0.00 | 0.00 | 50 | 1010.4 |
| 20260505035039 | 19 | 147 | 0.0 | 6.4 | 0.00 | 0.00 | 0.00 | 50 | 1010.5 |
| 20260505034549 | 19 | 0 | 0.0 | 4.8 | 0.00 | 0.00 | 0.00 | 50 | 1010.5 |
| 20260505034038 | 19 | 0 | 0.0 | 4.8 | 0.00 | 0.00 | 0.00 | 50 | 1010.5 |
| 20260505033538 | 19 | 0 | 0.0 | 4.8 | 0.00 | 0.00 | 0.00 | 50 | 1010.5 |
| 20260505033052 | 19 | 229 | 0.0 | 4.8 | 0.00 | 0.00 | 0.00 | 50 | 1010.5 |
| 20260505032536 | 19 | 0 | 0.0 | 6.4 | 0.00 | 0.00 | 0.00 | 50 | 1010.5 |
| 20260505032036 | 19 | 0 | 0.0 | 8.0 | 0.00 | 0.00 | 0.00 | 51 | 1010.6 |
| 20260505031548 | 19 | 159 | 1.6 | 8.0 | 0.00 | 0.00 | 0.00 | 52 | 1010.7 |
| 20260505031038 | 18 | 0 | 0.0 | 6.4 | 0.00 | 0.00 | 0.00 | 52 | 1010.6 |
| 20260505030539 | 18 | 0 | 1.6 | 6.4 | 0.00 | 0.00 | 0.00 | 53 | 1010.6 |
| 20260505030104 | 18 | 0 | 0.0 | 4.8 | 0.00 | 0.00 | 0.00 | 56 | 1010.6 |